Tracking 30743 objects as of 20-Jun-2025
HD Live streaming from Space Station
objects crossing your sky now

CRRES DEB (CANISTER)

Track CRRES DEB (CANISTER) now!


NORAD ID: 20811
Int'l Code: 1990-065C
Perigee: 305.6 km
Apogee: 30,589.1 km
Inclination: 18.0 °
Period: 534.6 minutes
Semi major axis: 21818 km
RCS: 0.1323 m2 (medium)
Launch date: July 25, 1990
Source: United States (US)
Launch site: AIR FORCE EASTERN TEST RANGE (AFETR)

Note: This is SATELLITE DEBRIS
Your satellite tracking list
Your tracking list is empty




NASA's NSSDC Master Catalog

Two Line Element Set (TLE):
1 20811U 90065C   25170.14327740  .00002832  00000-0  15794-2 0  9998
2 20811  17.9977  55.6509 6939897  28.0664 356.2523  2.69382713111652
Source of the keplerian elements: AFSPC